Dades meteomassalio
Diari Summary for Setembre 3, 2017 Units:  English    Metric   Both
« Previous Day
Next Day »
Diari Semanal Mensual Anual Personalitzat
  Maxima: Minima: Mijana:
Temperatura: TemperatureC °F 9.4 °F 17.5 °F
Rosada: DewpointC °F 3.3 °F 8.3 °F
Humitat: Humidity % 27 % 60 %
Velocitat del vent: WindSpeedKMH mph 0.0 mph 2.3 mph
Racha vent: WindSpeedGustKMH mph - -
Vent:- - WSW
Pressio: PressurehPa in 1014.4 in -
Pluja: 0.5 in    
Historical Graphs
 
 
Tabular Data for Setembre 3, 2017
Time Temperature Dew Point Pressure Wind Wind Speed Wind Gust Humidity Rainfall Rate (Hourly) solar Conditions
TemperatureC °F DewpointC °F PressurehPa in Calm     Humidity % HourlyPrecipMM in SolarRadiationWatts/m^2 W/m2 Conditions
00:02 12.2 °F 6.5 °F 1022.2 in Calm     68 % 0.0 in 0.0 W/m2 CLR
00:07 12.2 °F 6.7 °F 1022.6 in Calm     69 % 0.0 in 0.0 W/m2 CLR
00:12 11.7 °F 6.4 °F 1022.6 in Calm     70 % 0.0 in 0.0 W/m2 CLR
00:17 11.7 °F 6.6 °F 1022.6 in Calm     71 % 0.0 in 0.0 W/m2 CLR
00:22 11.7 °F 6.8 °F 1022.2 in Calm     72 % 0.0 in 0.0 W/m2 CLR
00:27 11.7 °F 7.2 °F 1022.2 in Calm     74 % 0.0 in 0.0 W/m2 CLR
00:32 11.7 °F 7.2 °F 1022.2 in Calm     74 % 0.0 in 0.0 W/m2 CLR
00:37 11.1 °F 6.8 °F 1022.2 in Calm     75 % 0.0 in 0.0 W/m2 CLR
00:42 11.1 °F 6.8 °F 1022.2 in Calm     75 % 0.0 in 0.0 W/m2 CLR
00:47 11.1 °F 6.8 °F 1022.2 in Calm     75 % 0.0 in 0.0 W/m2 CLR
00:52 11.1 °F 6.8 °F 1022.2 in Calm     75 % 0.0 in 0.0 W/m2 CLR
00:57 11.1 °F 6.8 °F 1022.2 in Calm     75 % 0.0 in 0.0 W/m2 CLR
01:02 11.1 °F 6.8 °F 1022.2 in Calm     75 % 0.0 in 0.0 W/m2 CLR
01:07 11.1 °F 7.1 °F 1022.2 in Calm     76 % 0.0 in 0.0 W/m2 CLR
01:12 11.1 °F 7.2 °F 1022.2 in Calm     77 % 0.0 in 0.0 W/m2 CLR
01:17 11.1 °F 7.2 °F 1022.2 in Calm     77 % 0.0 in 0.0 W/m2 CLR
01:22 11.1 °F 7.2 °F 1021.9 in Calm     77 % 0.0 in 0.0 W/m2 CLR
01:28 11.1 °F 7.2 °F 1021.9 in Calm     77 % 0.0 in 0.0 W/m2 CLR
01:32 11.1 °F 7.2 °F 1021.9 in Calm     77 % 0.0 in 0.0 W/m2 CLR
01:37 10.6 °F 6.9 °F 1021.9 in Calm     78 % 0.0 in 0.0 W/m2 CLR
01:42 10.6 °F 6.9 °F 1021.9 in Calm     78 % 0.0 in 0.0 W/m2 CLR
01:47 10.6 °F 6.7 °F 1021.9 in Calm     77 % 0.0 in 0.0 W/m2 CLR
01:53 10.6 °F 6.9 °F 1021.9 in Calm     78 % 0.0 in 0.0 W/m2 CLR
01:58 10.6 °F 6.9 °F 1021.9 in Calm     78 % 0.0 in 0.0 W/m2 CLR
02:03 11.1 °F 7.6 °F 1021.9 in Calm     79 % 0.0 in 0.0 W/m2 CLR
02:08 11.1 °F 7.6 °F 1021.6 in Calm     79 % 0.0 in 0.0 W/m2 CLR
02:13 11.1 °F 7.8 °F 1021.6 in Calm     80 % 0.0 in 0.0 W/m2 CLR
02:18 11.1 °F 7.8 °F 1021.6 in Calm     80 % 0.0 in 0.0 W/m2 CLR
02:23 11.1 °F 7.8 °F 1021.6 in Calm     80 % 0.0 in 0.0 W/m2 CLR
02:28 10.6 °F 7.2 °F 1021.6 in Calm     80 % 0.0 in 0.0 W/m2 CLR
02:33 10.6 °F 7.2 °F 1021.6 in Calm     80 % 0.0 in 0.0 W/m2 CLR
02:38 10.6 °F 7.2 °F 1021.2 in Calm     80 % 0.0 in 0.0 W/m2 CLR
02:43 10.6 °F 7.2 °F 1021.2 in Calm     80 % 0.0 in 0.0 W/m2 CLR
02:48 10.6 °F 7.2 °F 1021.2 in Calm     80 % 0.0 in 0.0 W/m2 CLR
02:53 10.6 °F 7.2 °F 1021.2 in Calm     80 % 0.0 in 0.0 W/m2 CLR
02:58 10.6 °F 7.4 °F 1021.2 in Calm     81 % 0.0 in 0.0 W/m2 CLR
03:03 10.6 °F 7.4 °F 1021.2 in Calm     81 % 0.0 in 0.0 W/m2 CLR
03:08 10.6 °F 7.4 °F 1021.2 in Calm     81 % 0.0 in 0.0 W/m2 CLR
03:13 10.6 °F 7.6 °F 1021.2 in Calm     82 % 0.0 in 0.0 W/m2 CLR
03:18 10.6 °F 7.6 °F 1021.2 in Calm     82 % 0.0 in 0.0 W/m2 CLR
03:23 10.6 °F 7.6 °F 1021.2 in Calm     82 % 0.0 in 0.0 W/m2 CLR
03:28 10.6 °F 7.6 °F 1021.2 in Calm     82 % 0.0 in 0.0 W/m2 CLR
03:33 10.6 °F 7.6 °F 1021.2 in Calm     82 % 0.0 in 0.0 W/m2 CLR
03:38 10.0 °F 6.9 °F 1021.2 in Calm     81 % 0.0 in 0.0 W/m2 CLR
03:43 10.0 °F 6.9 °F 1021.2 in Calm     81 % 0.0 in 0.0 W/m2 CLR
03:48 10.0 °F 7.1 °F 1021.2 in Calm     82 % 0.0 in 0.0 W/m2 CLR
03:53 10.0 °F 7.1 °F 1021.2 in Calm     82 % 0.0 in 0.0 W/m2 CLR
03:58 10.0 °F 7.2 °F 1020.9 in Calm     83 % 0.0 in 0.0 W/m2 CLR
04:03 10.0 °F 7.2 °F 1020.9 in Calm     83 % 0.0 in 0.0 W/m2 CLR
04:04 10.0 °F 7.2 °F 1020.9 in Calm     83 % 0.0 in 0.0 W/m2 CLR
04:09 10.0 °F 7.2 °F 1020.9 in Calm     83 % 0.0 in 0.0 W/m2 CLR
04:14 10.0 °F 7.4 °F 1020.9 in Calm     84 % 0.0 in 0.0 W/m2 CLR
04:19 10.0 °F 7.4 °F 1020.9 in Calm     84 % 0.0 in 0.0 W/m2 CLR
04:24 10.0 °F 7.4 °F 1020.9 in Calm     84 % 0.0 in 0.0 W/m2 CLR
04:29 10.0 °F 7.6 °F 1020.9 in Calm     85 % 0.0 in 0.0 W/m2 CLR
04:34 10.0 °F 7.6 °F 1020.9 in Calm     85 % 0.0 in 0.0 W/m2 CLR
04:39 10.0 °F 7.6 °F 1020.9 in Calm     85 % 0.0 in 0.0 W/m2 CLR
04:44 10.0 °F 7.6 °F 1020.9 in Calm     85 % 0.0 in 0.0 W/m2 CLR
04:49 10.6 °F 8.1 °F 1020.9 in Calm     85 % 0.0 in 0.0 W/m2 CLR
04:54 10.6 °F 8.3 °F 1020.5 in Calm     86 % 0.0 in 0.0 W/m2 CLR
04:59 10.6 °F 8.3 °F 1020.5 in Calm     86 % 0.0 in 0.0 W/m2 CLR
05:04 10.6 °F 8.3 °F 1020.5 in Calm     86 % 0.0 in 0.0 W/m2 CLR
05:09 10.6 °F 8.5 °F 1020.5 in Calm     87 % 0.0 in 0.0 W/m2 CLR
05:15 10.6 °F 8.5 °F 1020.5 in Calm     87 % 0.0 in 0.0 W/m2 CLR
05:19 10.6 °F 8.5 °F 1020.5 in Calm     87 % 0.0 in 0.0 W/m2 CLR
05:20 10.6 °F 8.5 °F 1020.5 in Calm     87 % 0.0 in 0.0 W/m2 CLR
05:21 10.6 °F 8.5 °F 1020.5 in Calm     87 % 0.0 in 0.0 W/m2 CLR
05:23 10.6 °F 8.5 °F 1020.5 in Calm     87 % 0.0 in 0.0 W/m2 CLR
05:24 10.6 °F 8.5 °F 1020.5 in Calm     87 % 0.0 in 0.0 W/m2 CLR
05:26 10.6 °F 8.5 °F 1020.5 in Calm     87 % 0.0 in 0.0 W/m2 CLR
05:31 10.6 °F 8.5 °F 1020.5 in Calm     87 % 0.0 in 0.0 W/m2 CLR
05:36 10.6 °F 8.5 °F 1020.2 in Calm     87 % 0.0 in 0.0 W/m2 CLR
05:41 10.6 °F 8.7 °F 1020.2 in Calm     88 % 0.0 in 0.0 W/m2 CLR
05:46 10.0 °F 8.1 °F 1020.2 in Calm     88 % 0.0 in 0.0 W/m2 CLR
05:51 10.0 °F 7.9 °F 1019.9 in Calm     87 % 0.0 in 0.0 W/m2 CLR
05:56 10.0 °F 8.1 °F 1020.2 in Calm     88 % 0.0 in 0.0 W/m2 CLR
06:01 10.0 °F 8.1 °F 1020.2 in Calm     88 % 0.0 in 0.0 W/m2 CLR
06:06 9.4 °F 7.7 °F 1020.2 in Calm     89 % 0.0 in 0.0 W/m2 CLR
06:11 9.4 °F 7.7 °F 1020.2 in Calm     89 % 0.0 in 0.0 W/m2 CLR
06:16 9.4 °F 7.7 °F 1019.9 in Calm     89 % 0.0 in 0.0 W/m2 CLR
06:21 9.4 °F 7.7 °F 1019.9 in Calm     89 % 0.0 in 0.0 W/m2 CLR
06:26 9.4 °F 7.7 °F 1019.5 in Calm     89 % 0.0 in 0.0 W/m2 CLR
06:31 9.4 °F 7.7 °F 1019.9 in Calm     89 % 0.0 in 0.0 W/m2 CLR
06:36 9.4 °F 7.7 °F 1019.9 in Calm     89 % 0.0 in 0.0 W/m2 CLR
06:41 9.4 °F 7.7 °F 1019.9 in Calm     89 % 0.0 in 0.0 W/m2 CLR
06:46 9.4 °F 7.7 °F 1019.9 in Calm     89 % 0.0 in 0.0 W/m2 CLR
06:51 10.0 °F 8.3 °F 1019.9 in Calm     89 % 0.0 in 0.0 W/m2 CLR
06:56 10.0 °F 8.3 °F 1019.9 in Calm     89 % 0.0 in 0.0 W/m2 CLR
07:01 10.0 °F 8.3 °F 1019.9 in Calm     89 % 0.0 in 0.0 W/m2 CLR
07:06 9.4 °F 7.7 °F 1019.9 in Calm     89 % 0.0 in 0.0 W/m2 CLR
07:11 9.4 °F 7.7 °F 1019.9 in SSE 7.4 mph 7.4 mph 89 % 0.0 in 0.0 W/m2 CLR
07:16 9.4 °F 7.9 °F 1019.9 in SSW 8.0 mph 8.0 mph 90 % 0.0 in 0.0 W/m2 CLR
07:21 9.4 °F 7.9 °F 1019.9 in SSE 9.3 mph 9.3 mph 90 % 0.0 in 0.0 W/m2 OVC
07:26 9.4 °F 7.7 °F 1020.2 in Calm     89 % 0.0 in 0.0 W/m2 OVC
07:31 10.0 °F 8.3 °F 1019.9 in Calm     89 % 0.0 in 0.0 W/m2 OVC
07:36 9.4 °F 7.7 °F 1019.9 in Calm     89 % 0.0 in 7.0 W/m2 OVC
07:41 9.4 °F 7.7 °F 1019.9 in Calm     89 % 0.0 in 11.0 W/m2 BKN
07:46 9.4 °F 7.7 °F 1019.9 in Calm     89 % 0.0 in 16.0 W/m2 BKN
07:51 10.0 °F 8.3 °F 1019.9 in Calm     89 % 0.0 in 19.0 W/m2 BKN
07:56 10.0 °F 8.3 °F 1019.9 in Calm     89 % 0.0 in 25.0 W/m2 BKN
08:01 10.0 °F 8.3 °F 1019.9 in Calm     89 % 0.0 in 30.0 W/m2 BKN
08:06 10.6 °F 9.0 °F 1019.9 in Calm     90 % 0.0 in 35.0 W/m2 BKN
08:11 10.6 °F 9.0 °F 1019.9 in Calm     90 % 0.0 in 40.0 W/m2 BKN
08:16 10.6 °F 9.0 °F 1019.9 in Calm     90 % 0.0 in 46.0 W/m2 SCT
08:21 11.1 °F 9.6 °F 1019.9 in Calm     90 % 0.0 in 53.0 W/m2 SCT
08:22 11.1 °F 9.6 °F 1019.9 in Calm     90 % 0.0 in 53.0 W/m2 SCT
08:27 11.1 °F 9.4 °F 1019.9 in Calm     89 % 0.0 in 67.0 W/m2 SCT
08:32 11.1 °F 9.6 °F 1019.9 in Calm     90 % 0.0 in 72.0 W/m2 SCT
08:37 11.1 °F 9.4 °F 1019.9 in Calm     89 % 0.0 in 72.0 W/m2 FEW
08:42 11.7 °F 9.9 °F 1019.9 in Calm     89 % 0.0 in 72.0 W/m2 FEW
08:47 11.7 °F 9.9 °F 1019.9 in Calm     89 % 0.0 in 70.0 W/m2 FEW
08:48 11.7 °F 9.7 °F 1019.9 in Calm     88 % 0.0 in 70.0 W/m2 FEW
08:53 11.7 °F 9.9 °F 1019.9 in Calm     89 % 0.0 in 72.0 W/m2 FEW
08:58 11.7 °F 9.7 °F 1019.9 in Calm     88 % 0.0 in 83.0 W/m2 FEW
09:03 12.2 °F 10.3 °F 1019.9 in Calm     88 % 0.0 in 111.0 W/m2 FEW
09:08 12.2 °F 10.3 °F 1019.9 in Calm     88 % 0.0 in 144.0 W/m2 CLR
09:13 12.8 °F 10.7 °F 1019.9 in Calm     87 % 0.0 in 178.0 W/m2 CLR
09:18 12.8 °F 10.7 °F 1019.9 in Calm     87 % 0.0 in 211.0 W/m2 CLR
09:23 12.8 °F 10.5 °F 1019.9 in Calm     86 % 0.0 in 183.0 W/m2 CLR
09:28 13.3 °F 10.9 °F 1019.9 in Calm     85 % 0.0 in 156.0 W/m2 CLR
09:33 13.3 °F 10.7 °F 1019.5 in Calm     84 % 0.0 in 162.0 W/m2 CLR
09:38 13.9 °F 10.9 °F 1019.9 in Calm     82 % 0.0 in 190.0 W/m2 CLR
09:44 13.9 °F 10.7 °F 1019.5 in Calm     81 % 0.0 in 204.0 W/m2 CLR
09:49 13.9 °F 10.7 °F 1019.5 in Calm     81 % 0.0 in 308.0 W/m2 CLR
09:54 14.4 °F 11.1 °F 1019.5 in Calm     80 % 0.0 in 432.0 W/m2 CLR
09:59 15.0 °F 11.0 °F 1019.5 in Calm     77 % 0.0 in 366.0 W/m2 CLR
10:04 15.6 °F 10.9 °F 1019.5 in Calm     74 % 0.0 in 383.0 W/m2 CLR
10:09 16.1 °F 11.1 °F 1019.5 in Calm     72 % 0.0 in 352.0 W/m2 CLR
10:14 16.7 °F 11.4 °F 1019.5 in Calm     71 % 0.0 in 360.0 W/m2 CLR
10:19 16.7 °F 11.2 °F 1019.5 in Calm     70 % 0.0 in 295.0 W/m2 CLR
10:24 17.2 °F 11.3 °F 1019.5 in Calm     68 % 0.0 in 427.0 W/m2 CLR
10:29 17.8 °F 11.8 °F 1019.5 in Calm     68 % 0.0 in 376.0 W/m2 CLR
10:34 17.8 °F 11.3 °F 1019.2 in Calm     66 % 0.0 in 353.0 W/m2 CLR
10:39 18.3 °F 11.4 °F 1019.2 in Calm     64 % 0.0 in 401.0 W/m2 CLR
10:44 18.9 °F 12.2 °F 1019.2 in Calm     65 % 0.0 in 390.0 W/m2 CLR
10:49 18.9 °F 11.7 °F 1019.2 in Calm     63 % 0.0 in 404.0 W/m2 CLR
10:54 19.4 °F 11.9 °F 1019.2 in Calm     62 % 0.0 in 353.0 W/m2 CLR
10:59 19.4 °F 11.7 °F 1018.8 in Calm     61 % 0.0 in 253.0 W/m2 CLR
11:04 19.4 °F 11.9 °F 1019.2 in Calm     62 % 0.0 in 229.0 W/m2 CLR
11:09 19.4 °F 11.5 °F 1018.8 in Calm     60 % 0.0 in 244.0 W/m2 CLR
11:14 19.4 °F 11.5 °F 1018.5 in Calm     60 % 0.0 in 239.0 W/m2 CLR
11:19 20.0 °F 11.7 °F 1018.8 in Calm     59 % 0.0 in 264.0 W/m2 CLR
11:24 20.0 °F 11.7 °F 1018.5 in Calm     59 % 0.0 in 350.0 W/m2 CLR
11:25 20.0 °F 11.7 °F 1018.5 in Calm     59 % 0.0 in 397.0 W/m2 CLR
11:30 20.0 °F 11.2 °F 1018.5 in Calm     57 % 0.0 in 304.0 W/m2 CLR
11:35 20.6 °F 11.4 °F 1018.5 in Calm     56 % 0.0 in 520.0 W/m2 CLR
11:40 20.6 °F 11.2 °F 1018.2 in Calm     55 % 0.0 in 547.0 W/m2 CLR
11:45 21.1 °F 10.9 °F 1018.2 in Calm     52 % 0.0 in 538.0 W/m2 CLR
11:50 21.7 °F 11.4 °F 1018.2 in Calm     52 % 0.0 in 582.0 W/m2 CLR
11:55 21.7 °F 11.1 °F 1018.2 in Calm     51 % 0.0 in 538.0 W/m2 CLR
12:00 21.7 °F 11.1 °F 1018.5 in Calm     51 % 0.0 in 577.0 W/m2 CLR
12:05 22.2 °F 11.0 °F 1018.5 in Calm     49 % 0.0 in 587.0 W/m2 CLR
12:10 22.2 °F 11.0 °F 1018.8 in WSW 6.4 mph 6.4 mph 49 % 0.0 in 759.0 W/m2 CLR
12:15 22.8 °F 11.5 °F 1018.8 in NNW 8.0 mph 8.0 mph 49 % 0.0 in 564.0 W/m2 CLR
12:20 22.2 °F 11.3 °F 1018.8 in WSW 13.0 mph 13.2 mph 50 % 0.0 in 461.0 W/m2 CLR
12:25 22.2 °F 11.9 °F 1018.5 in WSW 16.7 mph 16.7 mph 52 % 0.0 in 443.0 W/m2 CLR
12:30 22.2 °F 11.9 °F 1018.5 in West 16.7 mph 16.7 mph 52 % 0.0 in 461.0 W/m2 CLR
12:35 22.2 °F 11.9 °F 1018.5 in West 16.7 mph 16.7 mph 52 % 0.0 in 471.0 W/m2 CLR
12:40 22.2 °F 11.9 °F 1018.5 in West 14.8 mph 14.8 mph 52 % 0.0 in 478.0 W/m2 CLR
12:45 21.7 °F 11.7 °F 1018.5 in West 9.7 mph 9.7 mph 53 % 0.0 in 478.0 W/m2 CLR
12:50 21.7 °F 11.4 °F 1018.5 in NW 5.6 mph 5.6 mph 52 % 0.0 in 496.0 W/m2 CLR
12:55 22.2 °F 11.6 °F 1018.5 in NW 13.0 mph 13.0 mph 51 % 0.0 in 524.0 W/m2 CLR
13:00 22.2 °F 11.9 °F 1018.5 in Calm     52 % 0.0 in 531.0 W/m2 CLR
13:05 22.2 °F 11.0 °F 1018.2 in WSW 3.7 mph 3.7 mph 49 % 0.0 in 654.0 W/m2 CLR
13:10 22.2 °F 11.0 °F 1018.2 in WNW 1.9 mph 1.9 mph 49 % 0.0 in 489.0 W/m2 CLR
13:15 22.2 °F 10.7 °F 1017.8 in Calm     48 % 0.0 in 541.0 W/m2 CLR
13:20 22.2 °F 10.4 °F 1017.8 in Calm     47 % 0.0 in 431.0 W/m2 CLR
13:25 22.2 °F 10.1 °F 1017.5 in Calm     46 % 0.0 in 722.0 W/m2 CLR
13:30 22.8 °F 11.2 °F 1017.5 in Calm     48 % 0.0 in 652.0 W/m2 CLR
13:35 23.3 °F 11.4 °F 1017.5 in Calm     47 % 0.0 in 824.0 W/m2 CLR
13:40 23.3 °F 11.1 °F 1017.5 in Calm     46 % 0.0 in 828.0 W/m2 CLR
13:50 23.9 °F 11.6 °F 1017.2 in Calm     46 % 0.0 in 874.0 W/m2 CLR
13:55 23.9 °F 11.6 °F 1017.2 in ENE 1.9 mph   46 % 0.0 in 765.0 W/m2 CLR
14:00 24.4 °F 11.4 °F 1017.2 in NNE 9.3 mph 9.3 mph 44 % 0.0 in 933.0 W/m2 CLR
14:05 25.0 °F 11.9 °F 1017.2 in North 8.0 mph 8.0 mph 44 % 0.0 in 1034.0 W/m2 CLR
14:10 25.0 °F 11.2 °F 1017.2 in Calm     42 % 0.0 in 798.0 W/m2 CLR
14:15 25.6 °F 11.3 °F 1017.2 in Calm     41 % 0.0 in 865.0 W/m2 CLR
14:20 25.6 °F 10.6 °F 1016.8 in Calm     39 % 0.0 in 870.0 W/m2 CLR
14:25 25.6 °F 9.8 °F 1016.8 in Calm     37 % 0.0 in 870.0 W/m2 CLR
14:30 25.6 °F 10.2 °F 1016.8 in Calm     38 % 0.0 in 904.0 W/m2 CLR
14:32 25.6 °F 10.2 °F 1016.8 in Calm     38 % 0.0 in 865.0 W/m2 CLR
14:37 25.6 °F 10.6 °F 1016.8 in NE 1.9 mph   39 % 0.0 in 965.0 W/m2 CLR
14:42 26.1 °F 10.7 °F 1016.8 in Calm     38 % 0.0 in 496.0 W/m2 CLR
14:47 25.6 °F 9.4 °F 1016.8 in Calm     36 % 0.0 in 503.0 W/m2 CLR
14:52 26.7 °F 10.8 °F 1016.8 in Calm     37 % 0.0 in 1005.0 W/m2 CLR
14:57 26.7 °F 9.9 °F 1016.8 in NW 7.4 mph 7.4 mph 35 % 0.0 in 566.0 W/m2 CLR
15:02 26.7 °F 10.3 °F 1016.5 in West 16.7 mph 16.7 mph 36 % 0.0 in 786.0 W/m2 CLR
15:07 27.2 °F 10.0 °F 1016.5 in West 13.0 mph 13.0 mph 34 % 0.0 in 779.0 W/m2 CLR
15:12 26.7 °F 9.5 °F 1016.5 in West 14.8 mph 14.8 mph 34 % 0.0 in 536.0 W/m2 CLR
15:17 26.7 °F 9.1 °F 1016.5 in WNW 14.8 mph 14.8 mph 33 % 0.0 in 515.0 W/m2 CLR
15:22 26.7 °F 9.1 °F 1016.5 in North 1.9 mph 1.9 mph 33 % 0.0 in 476.0 W/m2 CLR
15:27 26.1 °F 8.6 °F 1016.1 in NW 5.6 mph 5.6 mph 33 % 0.0 in 452.0 W/m2 CLR
15:32 26.1 °F 8.6 °F 1016.1 in WNW 5.6 mph 5.6 mph 33 % 0.0 in 355.0 W/m2 CLR
15:37 26.1 °F 7.7 °F 1016.1 in West 13.0 mph 13.0 mph 31 % 0.0 in 418.0 W/m2 CLR
15:42 26.1 °F 8.1 °F 1016.1 in West 13.0 mph 13.0 mph 32 % 0.0 in 473.0 W/m2 CLR
15:47 26.1 °F 7.7 °F 1016.1 in Calm     31 % 0.0 in 587.0 W/m2 CLR
15:52 26.7 °F 7.7 °F 1015.8 in West 13.0 mph 13.0 mph 30 % 0.0 in 594.0 W/m2 CLR
15:57 26.7 °F 7.7 °F 1015.8 in SW 9.7 mph 9.7 mph 30 % 0.0 in 647.0 W/m2 CLR
16:02 26.7 °F 8.6 °F 1015.8 in WNW 9.7 mph 9.7 mph 32 % 0.0 in 643.0 W/m2 CLR
16:07 27.2 °F 8.1 °F 1015.8 in WNW 16.1 mph 16.1 mph 30 % 0.0 in 610.0 W/m2 CLR
16:12 26.7 °F 6.7 °F 1015.8 in NW 14.5 mph 14.5 mph 28 % 0.0 in 726.0 W/m2 CLR
16:17 27.2 °F 6.6 °F 1015.5 in West 18.5 mph 18.5 mph 27 % 0.0 in 612.0 W/m2 CLR
16:22 27.2 °F 7.6 °F 1015.5 in West 12.9 mph 12.9 mph 29 % 0.0 in 554.0 W/m2 CLR
16:27 26.7 °F 7.2 °F 1015.5 in WNW 13.0 mph 13.0 mph 29 % 0.0 in 520.0 W/m2 CLR
16:32 26.7 °F 7.2 °F 1015.5 in West 12.9 mph 12.9 mph 29 % 0.0 in 554.0 W/m2 CLR
16:37 27.2 °F 7.6 °F 1015.5 in WNW 11.3 mph 11.3 mph 29 % 0.0 in 575.0 W/m2 CLR
16:42 27.2 °F 7.6 °F 1015.5 in WSW 8.0 mph 8.0 mph 29 % 0.0 in 578.0 W/m2 CLR
16:47 27.2 °F 7.1 °F 1015.5 in WNW 16.7 mph 16.7 mph 28 % 0.0 in 499.0 W/m2 CLR
16:52 27.2 °F 7.1 °F 1015.5 in West 20.4 mph 20.4 mph 28 % 0.0 in 471.0 W/m2 CLR
16:57 26.7 °F 6.7 °F 1015.5 in WNW 14.8 mph 14.8 mph 28 % 0.0 in 504.0 W/m2 CLR
17:02 27.2 °F 6.6 °F 1015.5 in WNW 18.5 mph 18.5 mph 27 % 0.0 in 468.0 W/m2 CLR
17:07 26.7 °F 6.7 °F 1015.5 in WSW 11.3 mph 11.3 mph 28 % 0.0 in 236.0 W/m2 CLR
17:12 26.7 °F 6.7 °F 1015.1 in West 14.5 mph 14.5 mph 28 % 0.0 in 329.0 W/m2 CLR
17:17 26.7 °F 6.1 °F 1015.1 in West 16.1 mph 16.1 mph 27 % 0.0 in 427.0 W/m2 CLR
17:22 26.7 °F 6.7 °F 1015.1 in West 18.5 mph 18.5 mph 28 % 0.0 in 396.0 W/m2 CLR
17:27 26.7 °F 6.7 °F 1015.1 in West 14.8 mph 14.8 mph 28 % 0.0 in 399.0 W/m2 CLR
17:32 26.7 °F 6.7 °F 1015.1 in West 11.1 mph 11.1 mph 28 % 0.0 in 283.0 W/m2 CLR
17:37 26.7 °F 6.7 °F 1015.1 in West 13.0 mph 13.0 mph 28 % 0.0 in 318.0 W/m2 CLR
17:42 26.7 °F 7.2 °F 1015.1 in West 13.0 mph 13.0 mph 29 % 0.0 in 343.0 W/m2 CLR
17:47 26.7 °F 6.7 °F 1015.1 in West 9.7 mph 9.7 mph 28 % 0.0 in 454.0 W/m2 CLR
17:52 27.2 °F 7.1 °F 1015.1 in WSW 3.2 mph 5.3 mph 28 % 0.0 in 394.0 W/m2 CLR
17:57 27.2 °F 6.6 °F 1015.1 in Calm     27 % 0.0 in 313.0 W/m2 CLR
18:02 27.2 °F 7.1 °F 1014.8 in Calm     28 % 0.0 in 320.0 W/m2 CLR
18:07 26.7 °F 6.1 °F 1014.8 in WNW 5.6 mph 5.6 mph 27 % 0.0 in 285.0 W/m2 CLR
18:12 26.7 °F 6.7 °F 1014.8 in Calm     28 % 0.0 in 246.0 W/m2 CLR
18:17 26.7 °F 6.7 °F 1014.8 in WNW 9.7 mph 9.7 mph 28 % 0.0 in 373.0 W/m2 CLR
18:22 27.2 °F 6.6 °F 1014.8 in Calm     27 % 0.0 in 378.0 W/m2 CLR
18:27 27.2 °F 6.6 °F 1014.8 in WSW 11.1 mph 11.1 mph 27 % 0.0 in 343.0 W/m2 CLR
18:32 27.2 °F 7.1 °F 1014.8 in WNW 5.6 mph   28 % 0.0 in 332.0 W/m2 CLR
18:37 27.2 °F 6.6 °F 1014.8 in Calm   1.1 mph 27 % 0.0 in 308.0 W/m2 CLR
18:42 26.7 °F 6.1 °F 1014.4 in Calm     27 % 0.0 in 218.0 W/m2 CLR
18:47 26.7 °F 6.7 °F 1014.8 in Calm     28 % 0.0 in 149.0 W/m2 CLR
18:49 26.7 °F 6.7 °F 1014.8 in Calm     28 % 0.0 in 190.0 W/m2 CLR
18:54 26.1 °F 6.2 °F 1014.4 in WSW 3.7 mph   28 % 0.0 in 274.0 W/m2 CLR
18:59 26.1 °F 6.2 °F 1014.4 in Calm     28 % 0.0 in 179.0 W/m2 CLR
19:04 26.1 °F 5.7 °F 1014.4 in Calm     27 % 0.0 in 234.0 W/m2 CLR
19:09 26.1 °F 5.7 °F 1014.4 in WNW 9.3 mph 9.3 mph 27 % 0.0 in 216.0 W/m2 CLR
19:14 26.1 °F 5.7 °F 1014.4 in Calm     27 % 0.0 in 209.0 W/m2 CLR
19:19 26.1 °F 5.7 °F 1014.4 in Calm     27 % 0.0 in 88.0 W/m2 CLR
19:24 25.6 °F 5.2 °F 1014.4 in Calm     27 % 0.0 in 120.0 W/m2 CLR
19:29 25.6 °F 5.2 °F 1014.4 in Calm     27 % 0.0 in 148.0 W/m2 CLR
19:34 25.0 °F 5.2 °F 1014.4 in SW 5.6 mph 5.6 mph 28 % 0.0 in 86.0 W/m2 CLR
19:39 25.6 °F 5.7 °F 1014.4 in WSW 7.4 mph 7.4 mph 28 % 0.0 in 84.0 W/m2 FEW
19:44 25.0 °F 5.2 °F 1014.4 in West 5.6 mph 5.6 mph 28 % 0.0 in 53.0 W/m2 SCT
19:50 24.4 °F 5.2 °F 1014.4 in Calm     29 % 0.0 in 33.0 W/m2 BKN
19:55 23.3 °F 4.3 °F 1014.4 in Calm     29 % 0.0 in 21.0 W/m2 BKN
20:00 22.2 °F 3.8 °F 1014.4 in Calm     30 % 0.0 in 19.0 W/m2 BKN
20:06 21.7 °F 3.3 °F 1014.4 in Calm     30 % 0.0 in 19.0 W/m2 BKN
20:11 21.1 °F 3.3 °F 1014.4 in Calm     31 % 0.0 in 16.0 W/m2 BKN
20:16 21.1 °F 4.2 °F 1014.4 in Calm     33 % 0.0 in 12.0 W/m2 BKN
20:21 20.6 °F 3.3 °F 1014.4 in Calm     32 % 0.0 in 9.0 W/m2 BKN
20:25 20.6 °F 3.7 °F 1014.4 in Calm     33 % 0.0 in 0.0 W/m2 OVC
20:31 20.6 °F 4.6 °F 1014.4 in Calm     35 % 0.0 in 0.0 W/m2 OVC
20:36 20.0 °F 4.1 °F 1014.4 in Calm     35 % 0.0 in 0.0 W/m2 OVC
20:41 20.0 °F 4.4 °F 1014.4 in Calm     36 % 0.0 in 0.0 W/m2 CLR
20:46 19.4 °F 3.9 °F 1014.4 in Calm     36 % 0.0 in 0.0 W/m2 CLR
20:51 18.9 °F 4.3 °F 1014.4 in Calm     38 % 0.0 in 0.0 W/m2 CLR
20:56 18.9 °F 5.0 °F 1014.4 in Calm     40 % 0.0 in 0.0 W/m2 CLR
21:01 18.9 °F 6.1 °F 1014.4 in Calm     43 % 0.0 in 0.0 W/m2 CLR
21:06 18.3 °F 5.5 °F 1014.4 in Calm     43 % 0.0 in 0.0 W/m2 CLR
21:11 18.3 °F 6.8 °F 1014.4 in Calm     47 % 0.0 in 0.0 W/m2 CLR
21:16 18.3 °F 5.8 °F 1014.4 in Calm     44 % 0.0 in 0.0 W/m2 CLR
21:21 18.9 °F 7.9 °F 1014.8 in Calm     49 % 0.0 in 0.0 W/m2 CLR
21:26 18.9 °F 8.2 °F 1014.8 in Calm     50 % 0.0 in 0.0 W/m2 CLR
21:31 18.3 °F 7.1 °F 1014.8 in Calm     48 % 0.0 in 0.0 W/m2 CLR
21:36 18.3 °F 7.1 °F 1014.8 in Calm     48 % 0.0 in 0.0 W/m2 CLR
21:41 18.3 °F 7.1 °F 1014.8 in Calm     48 % 0.0 in 0.0 W/m2 CLR
21:46 18.3 °F 7.1 °F 1014.8 in Calm     48 % 0.0 in 0.0 W/m2 CLR
21:51 18.3 °F 7.7 °F 1015.1 in Calm     50 % 0.0 in 0.0 W/m2 CLR
21:56 18.3 °F 7.7 °F 1015.1 in Calm     50 % 0.0 in 0.0 W/m2 CLR
22:01 18.3 °F 8.3 °F 1015.1 in Calm     52 % 0.0 in 0.0 W/m2 CLR
22:06 18.9 °F 8.8 °F 1015.1 in Calm     52 % 0.0 in 0.0 W/m2 CLR
22:11 18.9 °F 9.1 °F 1015.5 in Calm     53 % 0.0 in 0.0 W/m2 CLR
22:16 18.3 °F 8.8 °F 1015.5 in Calm     54 % 0.0 in 0.0 W/m2 CLR
22:21 18.3 °F 8.6 °F 1015.5 in Calm     53 % 0.0 in 0.0 W/m2 CLR
22:26 18.3 °F 8.6 °F 1015.5 in Calm     53 % 0.0 in 0.0 W/m2 CLR
22:31 17.8 °F 8.3 °F 1015.8 in Calm     54 % 0.0 in 0.0 W/m2 CLR
22:36 17.8 °F 8.3 °F 1015.8 in Calm     54 % 0.0 in 0.0 W/m2 CLR
22:41 17.8 °F 8.1 °F 1015.8 in Calm     53 % 0.0 in 0.0 W/m2 CLR
22:46 18.3 °F 8.8 °F 1015.8 in Calm     54 % 0.0 in 0.0 W/m2 CLR
22:51 18.3 °F 8.8 °F 1015.8 in Calm     54 % 0.0 in 0.0 W/m2 CLR
22:56 18.3 °F 8.8 °F 1016.1 in Calm     54 % 0.0 in 0.0 W/m2 CLR
23:01 18.3 °F 8.8 °F 1016.1 in Calm     54 % 0.0 in 0.0 W/m2 CLR
23:06 18.3 °F 9.9 °F 1016.1 in Calm     58 % 0.0 in 0.0 W/m2 CLR
23:11 17.8 °F 9.9 °F 1016.5 in Calm     60 % 0.0 in 0.0 W/m2 CLR
23:16 17.8 °F 9.7 °F 1016.5 in Calm     59 % 0.0 in 0.0 W/m2 CLR
23:21 17.8 °F 9.7 °F 1016.5 in Calm     59 % 0.0 in 0.0 W/m2 CLR
23:26 17.2 °F 9.6 °F 1016.5 in Calm     61 % 0.0 in 0.0 W/m2 CLR
23:31 17.2 °F 8.9 °F 1016.5 in SW 7.4 mph 7.4 mph 58 % 0.3 in 0.0 W/m2 RA
23:36 17.2 °F 8.6 °F 1016.5 in Calm     57 % 0.5 in 0.0 W/m2 RA
23:41 17.2 °F 10.8 °F 1016.5 in SW 3.7 mph   66 % 0.5 in 0.0 W/m2 RA
23:46 16.7 °F 11.4 °F 1016.1 in Calm     71 % 0.5 in 0.0 W/m2 CLR
23:51 16.7 °F 10.5 °F 1015.8 in Calm     67 % 0.5 in 0.0 W/m2 CLR
23:56 16.7 °F 10.1 °F 1015.8 in Calm     65 % 0.5 in 0.0 W/m2 CLR
Lo Temps de Massalio
Compliments of Weather Underground - 1.25 mb